Location: Mason Neck State Park
(38.6428°N, 77.1981°W)
Time: 04:20:32
(UTC-05:00)

ISS - Visible Passes

Search period start: 24 January 2018 00:00
Search period end: 03 February 2018 00:00
Orbit: 402 x 407 km, 51.6° (Epoch: 24 January)

Date Brightness Start Highest point End Pass type
(mag) Time Alt. Az. Time Alt. Az. Time Alt. Az.
24 Jan -3.1 19:11:40 10° SW 19:14:10 50° SW 19:14:10 50° SW visible
25 Jan -3.2 18:19:36 10° SSW 18:22:40 39° SE 18:24:23 21° ENE visible
25 Jan -0.5 19:56:31 10° W 19:57:03 13° WNW 19:57:03 13° WNW visible
26 Jan -2.9 19:03:42 10° WSW 19:06:47 39° NNW 19:07:10 37° NNW visible
27 Jan -3.7 18:11:09 10° SW 18:14:24 76° NW 18:17:12 13° NE visible
27 Jan -0.6 19:49:23 10° WNW 19:49:52 12° NW 19:49:52 12° NW visible
28 Jan -1.8 18:56:12 10° WNW 18:58:45 21° NNW 18:59:49 18° N visible
29 Jan -2.4 18:03:15 10° W 18:06:14 32° NNW 18:09:13 10° NE visible
30 Jan -1.3 18:49:07 10° NW 18:50:48 13° NNW 18:52:11 11° N visible
31 Jan -1.6 17:55:48 10° WNW 17:58:09 18° NNW 18:00:32 10° NNE visible
